This is the latest recevied weather packets stored in our database for station/object G1OCN-WX. If no packets are shown the sender has not sent any weather packets the latest 10 day(s).
| Time | Temp. | Humidity | Pressure | Rain* | Wind** | Luminosity | Snow |
|---|---|---|---|---|---|---|---|
| 1787459491 | 15° C | 76% | 1024.8 hPa | 0 mm | - | - | - |
| 1787458591 | 14.44° C | 75% | 1024.8 hPa | 0 mm | - | - | - |
| 1787457691 | 15° C | 75% | 1024.8 hPa | 0 mm | - | - | - |
| 1787456761 | 14.44° C | 76% | 1024.8 hPa | 0 mm | - | - | - |
| 1787455861 | 14.44° C | 77% | 1024.8 hPa | 0 mm | - | - | - |
| 1787454961 | 14.44° C | 76% | 1024.8 hPa | 0 mm | - | - | - |
| 1787454060 | 15° C | 74% | 1024.8 hPa | 0 mm | - | - | - |
| 1787453160 | 15.56° C | 73% | 1024.9 hPa | 0 mm | - | - | - |
| 1787452230 | 15.56° C | 72% | 1024.8 hPa | 0 mm | - | - | - |
| 1787451330 | 15° C | 74% | 1024.8 hPa | 0 mm | - | - | - |
| 1787450430 | 15° C | 75% | 1024.8 hPa | 0 mm | - | - | - |
| 1787449500 | 15° C | 75% | 1025 hPa | 0 mm | - | - | - |
| 1787448600 | 15° C | 74% | 1024.8 hPa | 0 mm | - | - | - |
| 1787447700 | 15° C | 73% | 1024.8 hPa | 0 mm | - | - | - |
| 1787446770 | 15° C | 71% | 1024.8 hPa | 0 mm | - | - | - |
| 1787445870 | 15.56° C | 71% | 1024.8 hPa | 0 mm | - | - | - |
| 1787444970 | 15.56° C | 73% | 1024.7 hPa | 0 mm | - | - | - |
| 1787444070 | 15.56° C | 72% | 1024.7 hPa | 0 mm | - | - | - |
| 1787443170 | 15.56° C | 71% | 1024.6 hPa | 0 mm | - | - | - |
| 1787442269 | 16.11° C | 70% | 1024.8 hPa | 0 mm | - | - | - |
| 1787441369 | 16.11° C | 70% | 1024.6 hPa | 0 mm | - | - | - |
| 1787440469 | 16.11° C | 73% | 1024.7 hPa | 0 mm | - | - | - |
| 1787439569 | 16.11° C | 75% | 1024.6 hPa | 0 mm | - | - | - |
| 1787438669 | 16.11° C | 75% | 1024.6 hPa | 0 mm | - | - | - |
| 1787437769 | 16.11° C | 77% | 1024.6 hPa | 0 mm | - | - | - |
* Rain latest hour (hover to see other rain measurements)
** Current wind speed in m/s (hover to see current wind gust speed)